Waupaca, WI

3:43 AM CDT on May 27, 2017 (GMT -0500)
Waupaca Municipal

Weather History for KPCZ - June, 2013

Change the Weather History Date:

Tuesday, June 4, 2013

  Actual Average Record
Temperature  
Mean Temperature 56 °F -  
Max Temperature 59 °F 75 °F 89 °F (1953)
Min Temperature 52 °F 49 °F 35 °F (1982)
Degree Days  
Heating Degree Days 10    
Growing Degree Days 6 (Base 50)    
Moisture  
Dew Point 49 °F    
Average Humidity 83    
Maximum Humidity 93    
Minimum Humidity 63    
Precipitation  
Precipitation 0.46 in - - ()
Sea Level Pressure  
Sea Level Pressure 30.17 in    
Wind  
Wind Speed 4 mph (ENE)    
Max Wind Speed 10 mph    
Max Gust Speed -    
Visibility 7 miles    
Events Rain    
Averages and records for this station are not official NWS values.
T = Trace of Precipitation, MM = Missing Value Source: NWS Daily Summary

Daily Weather History Graph

Daily Weather History Graph

Search for Another Location

Airport or City:

Trip Planner

Search our weather history database for the weather conditions in past years. The results will help you decide how hot, cold, wet, or windy it might be!

Date:

Astronomy

Jun. 04, 2013 Rise Set
Actual Time 5:13 AM CDT 8:35 PM CDT
Civil Twilight 4:37 AM CDT 9:11 PM CDT
Nautical Twilight 3:50 AM CDT 9:58 PM CDT
Astronomical Twilight 2:51 AM CDT 10:58 PM CDT
Moon 2:51 AM CDT (6/4) 4:58 PM CDT (6/4)
Length of Visible Light 16h 34m
Length of Day
15h 22m
Waning Crescent, 14% of the Moon is Illuminated
Jun 4
Waning Crescent
Jun 8
New
Jun 16
First Quarter
Jun 23
Full
Jun 29
Last Quarter

Hourly Weather History & Observations

Time (CDT) Temp. Dew Point Humidity Pressure Visibility Wind Dir Wind Speed Gust Speed Precip Events Conditions
12:15 AM 59.0 °F 46.6 °F 63% 30.11 in 10.0 mi North 4.6 mph - N/A   Mostly Cloudy
12:35 AM 58.6 °F 46.8 °F 65% 30.11 in 10.0 mi NNE 3.5 mph - N/A   Mostly Cloudy
12:55 AM 58.1 °F 46.8 °F 66% 30.11 in 10.0 mi Calm Calm - N/A   Mostly Cloudy
1:15 AM 57.9 °F 46.8 °F 66% 30.11 in 10.0 mi Calm Calm - N/A   Overcast
1:35 AM 57.2 °F 46.6 °F 68% 30.10 in 10.0 mi NNE 4.6 mph - N/A   Mostly Cloudy
1:55 AM 57.2 °F 46.4 °F 67% 30.11 in 10.0 mi NNE 3.5 mph - N/A   Mostly Cloudy
2:15 AM 56.8 °F 46.9 °F 69% 30.11 in 10.0 mi NNE 3.5 mph - N/A   Overcast
2:35 AM 56.3 °F 46.8 °F 70% 30.10 in 10.0 mi Calm Calm - N/A   Overcast
2:55 AM 55.8 °F 47.3 °F 73% 30.10 in 10.0 mi Calm Calm - N/A   Overcast
3:15 AM 55.6 °F 47.7 °F 75% 30.10 in 10.0 mi NE 3.5 mph - N/A   Overcast
3:35 AM 55.4 °F 47.5 °F 75% 30.11 in 10.0 mi NE 4.6 mph - N/A   Overcast
3:55 AM 55.4 °F 46.8 °F 73% 30.12 in 10.0 mi NE 3.5 mph - N/A   Overcast
4:15 AM 55.4 °F 46.4 °F 72% 30.12 in 10.0 mi East 4.6 mph - N/A   Overcast
4:35 AM 54.5 °F 46.2 °F 74% 30.12 in 10.0 mi East 4.6 mph - N/A   Mostly Cloudy
4:55 AM 54.5 °F 46.4 °F 74% 30.13 in 10.0 mi ENE 5.8 mph - N/A   Mostly Cloudy
5:15 AM 53.8 °F 45.5 °F 74% 30.15 in 10.0 mi NNE 3.5 mph - N/A Rain Light Rain
5:35 AM 53.6 °F 45.9 °F 75% 30.16 in 10.0 mi Calm Calm - N/A Rain Light Rain
5:55 AM 52.7 °F 45.7 °F 77% 30.17 in 10.0 mi NNE 5.8 mph - N/A   Mostly Cloudy
6:15 AM 52.2 °F 43.9 °F 73% 30.17 in 10.0 mi NNE 6.9 mph - N/A   Overcast
6:35 AM 52.0 °F 43.7 °F 73% 30.16 in 10.0 mi ENE 5.8 mph - N/A   Mostly Cloudy
6:55 AM 52.3 °F 44.6 °F 75% 30.16 in 10.0 mi NE 3.5 mph - N/A   Scattered Clouds
7:15 AM 53.6 °F 45.3 °F 74% 30.17 in 10.0 mi NE 4.6 mph - N/A   Clear
7:35 AM 53.4 °F 45.5 °F 75% 30.17 in 10.0 mi ENE 5.8 mph - N/A   Clear
7:55 AM 53.6 °F 45.1 °F 73% 30.17 in 10.0 mi East 5.8 mph - N/A   Clear
8:15 AM 53.8 °F 45.5 °F 74% 30.16 in 10.0 mi East 5.8 mph - N/A   Clear
8:35 AM 53.6 °F 46.0 °F 76% 30.15 in 10.0 mi East 4.6 mph - N/A   Clear
8:55 AM 53.6 °F 46.4 °F 77% 30.16 in 10.0 mi East 3.5 mph - N/A   Scattered Clouds
9:15 AM 53.8 °F 46.6 °F 77% 30.18 in 10.0 mi Calm Calm - N/A Rain Light Rain
9:35 AM 53.8 °F 46.9 °F 78% 30.20 in 10.0 mi Calm Calm - N/A   Mostly Cloudy
9:55 AM 53.8 °F 48.0 °F 81% 30.20 in 7.0 mi North 5.8 mph - 0.01 in Rain Rain
10:15 AM 53.6 °F 49.1 °F 85% 30.21 in 7.0 mi Calm Calm - N/A Rain Light Rain
10:35 AM 53.6 °F 49.5 °F 86% 30.21 in 7.0 mi Calm Calm - N/A Rain Light Rain
10:55 AM 53.6 °F 50.0 °F 88% 30.21 in 7.0 mi Calm Calm - 0.01 in Rain Light Rain
11:15 AM 54.0 °F 50.4 °F 88% 30.21 in 5.0 mi Calm Calm - 0.01 in Rain Light Rain
11:35 AM 53.8 °F 50.4 °F 88% 30.22 in 5.0 mi Calm Calm - 0.02 in Rain Light Rain
11:55 AM 54.1 °F 50.7 °F 88% 30.22 in 4.0 mi Calm Calm - 0.05 in Rain Rain
12:15 PM 54.5 °F 50.9 °F 88% 30.22 in 5.0 mi NE 3.5 mph - 0.01 in Rain Light Rain
12:35 PM 54.5 °F 51.4 °F 89% 30.21 in 4.0 mi North 5.8 mph - 0.03 in Rain Rain
12:55 PM 54.5 °F 51.4 °F 89% 30.21 in 3.0 mi ENE 3.5 mph - 0.07 in Rain Rain
1:15 PM 54.5 °F 51.6 °F 90% 30.20 in 4.0 mi ENE 3.5 mph - 0.02 in Rain Rain
1:35 PM 55.0 °F 52.7 °F 92% 30.21 in 3.0 mi Calm Calm - 0.05 in Rain Rain
1:55 PM 55.4 °F 52.7 °F 91% 30.20 in 4.0 mi East 5.8 mph - 0.07 in Rain Light Rain
2:15 PM 54.9 °F 52.3 °F 91% 30.19 in 4.0 mi ENE 4.6 mph - 0.02 in Rain Light Rain
2:35 PM 55.4 °F 52.7 °F 91% 30.19 in 4.0 mi ENE 6.9 mph - 0.05 in Rain Light Rain
2:55 PM 55.4 °F 52.7 °F 91% 30.18 in 4.0 mi ENE 6.9 mph - 0.07 in Rain Light Rain
3:15 PM 55.2 °F 52.3 °F 90% 30.18 in 4.0 mi NE 6.9 mph - 0.02 in Rain Light Rain
3:35 PM 55.4 °F 52.7 °F 91% 30.19 in 4.0 mi ENE 3.5 mph - 0.03 in Rain Light Rain
3:55 PM 55.4 °F 52.7 °F 91% 30.19 in 5.0 mi NNE 4.6 mph - 0.05 in Rain Light Rain
4:15 PM 55.4 °F 52.7 °F 91% 30.19 in 4.0 mi Calm Calm - 0.02 in Rain Rain
4:35 PM 55.4 °F 52.9 °F 91% 30.18 in 5.0 mi NE 6.9 mph - 0.03 in Rain Light Rain
4:55 PM 55.2 °F 52.5 °F 91% 30.17 in 7.0 mi NE 5.8 mph - 0.03 in Rain Light Rain
5:15 PM 55.0 °F 52.5 °F 91% 30.18 in 7.0 mi NE 6.9 mph - N/A   Overcast
5:35 PM 55.2 °F 52.5 °F 91% 30.18 in 7.0 mi NE 3.5 mph - N/A   Overcast
5:55 PM 55.2 °F 52.3 °F 90% 30.18 in 7.0 mi East 8.1 mph - 0.01 in Rain Light Rain
6:15 PM 54.5 °F 51.6 °F 90% 30.17 in 5.0 mi East 10.4 mph - N/A Rain Light Rain
6:35 PM 53.8 °F 51.1 °F 91% 30.17 in 7.0 mi ENE 5.8 mph - 0.01 in Rain Light Rain
6:55 PM 53.6 °F 51.1 °F 91% 30.18 in 7.0 mi East 4.6 mph - 0.02 in Rain Rain
7:15 PM 53.8 °F 51.3 °F 91% 30.18 in 5.0 mi East 3.5 mph - 0.02 in Rain Light Rain
7:35 PM 54.0 °F 51.6 °F 92% 30.18 in 4.0 mi Calm Calm - 0.03 in Rain Light Rain
7:55 PM 54.0 °F 51.6 °F 92% 30.18 in 3.0 mi East 4.6 mph - 0.04 in Rain Rain
8:15 PM 53.6 °F 51.1 °F 91% 30.18 in 3.0 mi East 4.6 mph - 0.01 in Rain Rain
8:35 PM 53.6 °F 51.3 °F 92% 30.18 in 3.0 mi East 4.6 mph - 0.02 in Rain Light Rain
8:55 PM 53.6 °F 51.3 °F 92% 30.18 in 3.0 mi East 6.9 mph - 0.03 in Rain Light Rain
9:15 PM 52.9 °F 50.9 °F 93% 30.18 in 5.0 mi ENE 5.8 mph - N/A   Light Drizzle
9:35 PM 52.7 °F 50.4 °F 92% 30.19 in 7.0 mi NE 3.5 mph - N/A   Overcast
9:55 PM 52.7 °F 50.2 °F 91% 30.20 in 7.0 mi Calm Calm - N/A   Overcast
10:15 PM 52.7 °F 50.2 °F 91% 30.19 in 7.0 mi NE 4.6 mph - N/A   Overcast
10:35 PM 52.7 °F 50.4 °F 92% 30.18 in 5.0 mi NE 4.6 mph - N/A   Overcast
10:55 PM 52.7 °F 50.4 °F 92% 30.18 in 5.0 mi Calm Calm - N/A   Overcast
11:15 PM 52.9 °F 50.5 °F 92% 30.18 in 5.0 mi ENE 3.5 mph - N/A   Overcast
11:35 PM 52.3 °F 50.0 °F 92% 30.17 in 5.0 mi ENE 3.5 mph - N/A   Overcast
11:55 PM 52.2 °F 50.0 °F 92% 30.17 in 5.0 mi NE 3.5 mph - N/A   Mostly Cloudy